Tracking 20621 objects as of 31-Mar-2020
HD Live streaming from Space Station
objects crossing your sky now

DIAMOND RED

Track DIAMOND RED now!
10-day predictions


NORAD ID: 42783
Int'l Code: 2017-036U
Perigee: 497.6 km
Apogee: 512.2 km
Inclination: 97.3 °
Period: 94.6 minutes
Semi major axis: 6875 km
RCS: Unknown
Launch date: June 23, 2017
Source: Australia (AUS)
Launch site: SRIHARIKOTA (SRI)
aabbcc
Your satellite tracking list
Your tracking list is empty




NASA's NSSDC Master Catalog

Two Line Element Set (TLE):
1 42783U 17036U   20090.69125304 +.00000873 +00000-0 +40378-4 0  9996
2 42783 097.3108 146.3618 0010586 310.7342 049.2974 15.22684956153768
Source of the keplerian elements: AFSPC